Location: Dumpton Point
(51.3500°N, 1.4433°E)
Time: 05:12:35
(UTC+00:00)

Altair - Pass Details

Date: 06 October 2022
Orbit: 1501 x 1682 km, 47.2° (Epoch: 26 November)

Event Time Altitude Azimuth Distance (km) Brightness Sun altitude
Rises 11:32:03 0° 287° (WNW) 4,913 10.0 33.4°
Reaches altitude 10° 11:36:23 10° 271° (W) 3,937 9.7 33.4°
Maximum altitude 11:42:47 19° 231° (SW) 3,259 10.0 33.4°
Drops below altitude 10° 11:49:13 10° 191° (S) 3,931 11.1 33.4°
Sets 11:53:35 0° 175° (S) 4,903 11.2 33.4°
